Flag for France Weather past 2 weeks in Le Mans, France

Now
54 °F

Clear.


Feels Like: 50 °F
Forecast: 43 / 55 °F
Wind: 12 mph from West

Location: Le Mans Airport

Current Time: Apr 1, 2015 at 4:46:35 PM

Latest Report: Apr 1, 2015 at 4:00 PM


Visibility: N/A

Pressure: 30.42 "Hg

Humidity: 47%

Dew point: 34 °F

Location of Le MansLocation

Historic Weather in Le Mans — Graph

°F

Le Mans temperature yesterday

Maximum temperature yesterday: 57 °F (at 11:30 AM)
Minimum temperature yesterday: 46 °F (at 11:30 PM)
Average temperature yesterday: 54 °F

Past Weeks' High & Low Weather Summary

 TemperatureHumidityPressure
High64 °F (Mar 18, 3:30 PM)100% (Mar 25, 6:00 AM)30.45 "Hg (Mar 25, 6:00 AM)
Low28 °F (Mar 25, 6:00 AM)36% (Mar 23, 4:30 PM)29.77 "Hg (Mar 24, 6:30 PM)
Average48 °F75%30.09 "Hg
* Reported Mar 17 2:00 PM — Apr 1 3:30 PM, Le Mans, Weather by CustomWeather, © 2015

Note: Actual official high and low records may vary slightly from our data, if they occured in-between our weather recording intervals... More about our weather records

Advertising

Le Mans weather history for previous 24 hours

 ConditionsComfort  
Time TempWeatherWind HumidityBarometerVisibility
3:30 PM
Wed, Apr 1
54 °FPartly sunny.10 mph51%30.42 "HgN/A
3:00 PM55 °FScattered clouds.12 mph38%30.42 "HgN/A
2:30 PM54 °FBroken clouds.9 mph47%30.42 "HgN/A
2:00 PM55 °FPartly sunny.9 mph44%30.42 "HgN/A
1:30 PM54 °FPassing clouds.12 mph44%30.45 "HgN/A
1:00 PM54 °FScattered clouds.10 mph44%30.45 "HgN/A
12:30 PM52 °FPassing clouds.10 mph47%30.45 "HgN/A
12:00 PM50 °FPartly sunny.8 mph54%30.45 "HgN/A
11:30 AM50 °FBroken clouds.10 mph58%30.45 "HgN/A
11:00 AM48 °FPartly sunny.12 mph66%30.45 "HgN/A
10:30 AM48 °FClear.9 mph71%30.42 "HgN/A
10:00 AM46 °FClear.8 mph76%30.42 "HgN/A
9:30 AM45 °FClear.9 mph81%30.42 "HgN/A
9:00 AM43 °FClear.6 mph87%30.42 "HgN/A
8:30 AM41 °FClear.6 mph87%30.39 "HgN/A
8:00 AM41 °FPassing clouds.7 mph87%30.39 "HgN/A
7:30 AM41 °FClear.6 mph87%30.36 "HgN/A
7:00 AM41 °FClear.6 mph87%30.36 "HgN/A
6:30 AM43 °FClear.7 mph81%30.36 "HgN/A
6:00 AM43 °FClear.8 mph81%30.33 "HgN/A
5:30 AM43 °FClear.9 mph87%30.33 "HgN/A
4:30 AM43 °FClear.8 mph81%30.33 "HgN/A
4:00 AM43 °FPartly cloudy.10 mph87%30.33 "HgN/A
3:30 AM43 °FPassing clouds.6 mph81%30.33 "HgN/A
3:00 AM43 °FPassing clouds.7 mph81%30.33 "HgN/A
2:30 AM45 °FPassing clouds.7 mph81%30.30 "HgN/A
2:00 AM45 °FPartly cloudy.7 mph76%30.30 "HgN/A
1:30 AM45 °FClear.7 mph76%30.30 "HgN/A
1:00 AM46 °FPassing clouds.9 mph71%30.30 "HgN/A
12:30 AM46 °FPassing clouds.9 mph66%30.30 "HgN/A
12:00 AM46 °FPassing clouds.9 mph66%30.30 "HgN/A
11:30 PM
Tue, Mar 31
46 °FClear.8 mph66%30.30 "HgN/A
11:00 PM48 °FClear.9 mph62%30.27 "HgN/A
10:30 PM48 °FClear.9 mph62%30.27 "HgN/A
10:00 PM50 °FClear.9 mph58%30.27 "HgN/A
9:30 PM50 °FClear.12 mph58%30.24 "HgN/A
9:00 PM50 °FClear.12 mph58%30.24 "HgN/A
8:30 PM52 °FClear.12 mph54%30.24 "HgN/A
8:00 PM54 °FClear.9 mph51%30.21 "HgN/A
7:30 PM54 °FClear.10 mph51%30.21 "HgN/A
7:00 PM55 °FClear.13 mph47%30.21 "HgN/A
6:30 PM57 °FClear.13 mph44%30.18 "HgN/A
6:00 PM55 °FClear.14 mph47%30.18 "HgN/A
5:30 PM57 °FClear.16 mph39%30.15 "HgN/A
5:00 PM57 °FClear.14 mph44%30.15 "HgN/A
4:30 PM55 °FMostly cloudy.16 mph51%30.15 "HgN/A
4:00 PM57 °FPartly sunny.16 mph48%30.15 "HgN/A
Weather by CustomWeather, © 2015

See weather overviewHow to use our weather pages